TimeCST,TemperatureF,Dew PointF,Humidity,Sea Level PressureIn,VisibilityMPH,Wind Direction,Wind SpeedMPH,Gust SpeedMPH,PrecipitationIn,Events,Conditions,WindDirDegrees,DateUTC
12:52 AM,30.9,21.0,67,30.08,10.0,ENE,8.1,-,0.00,,Overcast,70,2013-02-21 06:52:00
1:52 AM,30.0,21.0,69,30.03,10.0,East,8.1,20.7,0.00,,Overcast,80,2013-02-21 07:52:00
2:45 AM,30.2,21.2,69,29.98,10.0,East,9.2,16.1,0.00,,Overcast,80,2013-02-21 08:45:00
2:52 AM,30.9,21.0,67,29.96,10.0,East,10.4,19.6,0.00,,Overcast,80,2013-02-21 08:52:00
3:15 AM,30.2,21.2,69,29.98,7.0,East,8.1,20.7,0.00,Rain,Light Freezing Rain,90,2013-02-21 09:15:00
3:19 AM,30.2,21.2,69,29.95,7.0,ENE,8.1,-,0.00,Snow,Light Snow,70,2013-02-21 09:19:00
3:40 AM,30.2,23.0,75,29.96,1.8,ENE,10.4,17.3,0.00,Snow,Light Snow,70,2013-02-21 09:40:00
3:52 AM,30.0,25.0,82,29.95,2.5,ENE,8.1,-,0.00,Rain,Light Freezing Rain,60,2013-02-21 09:52:00
3:59 AM,30.2,24.8,80,29.93,4.0,ENE,9.2,17.3,0.00,Rain,Light Freezing Rain,70,2013-02-21 09:59:00
4:38 AM,30.2,24.8,80,29.93,6.0,ENE,12.7,21.9,N/A,Rain-Thunderstorm,Light Freezing Rain,70,2013-02-21 10:38:00
4:52 AM,30.0,26.1,85,29.92,3.0,East,11.5,19.6,N/A,Rain-Thunderstorm,Light Freezing Rain,80,2013-02-21 10:52:00
4:56 AM,30.2,26.6,86,29.85,4.0,ENE,13.8,24.2,N/A,Rain,Light Freezing Rain,70,2013-02-21 10:56:00
5:03 AM,30.2,26.6,86,29.87,2.5,Variable,5.8,26.5,N/A,Rain,Light Freezing Rain,0,2013-02-21 11:03:00
5:09 AM,30.2,26.6,86,29.90,3.0,East,10.4,20.7,N/A,Rain,Light Freezing Rain,80,2013-02-21 11:09:00
5:22 AM,30.2,26.6,86,29.83,3.0,East,10.4,26.5,N/A,Rain,Light Freezing Rain,80,2013-02-21 11:22:00
5:27 AM,30.2,26.6,86,29.81,2.5,East,13.8,28.8,N/A,Rain,Light Freezing Rain,90,2013-02-21 11:27:00
5:31 AM,30.2,26.6,86,29.84,4.0,East,16.1,28.8,N/A,Rain,Light Freezing Rain,80,2013-02-21 11:31:00
5:52 AM,30.0,27.0,88,29.83,3.0,East,11.5,20.7,N/A,Rain-Thunderstorm,Light Freezing Rain,90,2013-02-21 11:52:00
5:55 AM,30.2,26.6,86,29.80,2.5,East,13.8,26.5,0.00,Rain-Thunderstorm,Light Freezing Rain,90,2013-02-21 11:55:00
6:09 AM,30.2,26.6,86,29.89,3.0,Variable,3.5,24.2,N/A,Rain-Thunderstorm,Light Freezing Rain,0,2013-02-21 12:09:00
6:13 AM,30.2,26.6,86,29.88,4.0,ENE,8.1,18.4,N/A,Rain-Thunderstorm,Light Freezing Rain,70,2013-02-21 12:13:00
6:20 AM,30.2,26.6,86,29.92,5.0,Variable,4.6,-,N/A,Rain-Thunderstorm,Light Freezing Rain,0,2013-02-21 12:20:00
6:29 AM,30.2,28.4,93,29.84,3.0,ENE,10.4,17.3,N/A,Rain-Thunderstorm,Light Freezing Rain,70,2013-02-21 12:29:00
6:41 AM,32.0,28.4,87,29.89,4.0,NNE,6.9,-,N/A,Rain,Light Freezing Rain,20,2013-02-21 12:41:00
6:45 AM,32.0,28.4,87,29.94,4.0,North,9.2,-,N/A,Rain,Light Freezing Rain,350,2013-02-21 12:45:00
7:08 AM,30.2,28.4,93,29.92,1.8,NNE,8.1,-,0.01,Snow-Thunderstorm,Light Thunderstorms and Snow,20,2013-02-21 13:08:00
7:16 AM,30.2,28.4,93,29.89,1.0,NNE,9.2,-,0.01,Snow-Thunderstorm,Light Thunderstorms and Snow,30,2013-02-21 13:16:00
7:23 AM,30.2,28.4,93,29.90,1.5,NE,8.1,-,0.01,,Overcast,40,2013-02-21 13:23:00
7:29 AM,30.2,26.6,86,29.88,2.0,NE,8.1,-,0.01,Snow-Thunderstorm,Light Thunderstorms and Snow,40,2013-02-21 13:29:00
7:52 AM,30.0,27.0,88,29.93,2.0,Variable,4.6,-,0.01,,Overcast,0,2013-02-21 13:52:00
8:01 AM,30.2,26.6,86,29.86,2.0,ENE,10.4,16.1,0.00,,Overcast,60,2013-02-21 14:01:00
8:06 AM,30.2,26.6,86,29.85,1.2,ENE,10.4,18.4,N/A,,Overcast,60,2013-02-21 14:06:00
8:21 AM,30.2,26.6,86,29.86,2.0,NE,9.2,19.6,N/A,,Overcast,50,2013-02-21 14:21:00
8:32 AM,30.2,28.4,93,29.85,1.8,ENE,9.2,-,N/A,,Overcast,60,2013-02-21 14:32:00
8:45 AM,30.2,28.4,93,29.84,1.5,ENE,8.1,-,N/A,Rain,Light Freezing Rain,60,2013-02-21 14:45:00
8:52 AM,30.9,28.9,92,29.84,2.5,Variable,6.9,-,N/A,Rain,Light Freezing Rain,0,2013-02-21 14:52:00
8:57 AM,32.0,28.4,87,29.86,4.0,Variable,6.9,17.3,N/A,Rain,Light Freezing Rain,0,2013-02-21 14:57:00
9:34 AM,32.0,28.4,87,29.82,5.0,Variable,6.9,24.2,N/A,Rain,Light Freezing Rain,0,2013-02-21 15:34:00
9:52 AM,32.0,28.0,85,29.84,5.0,East,9.2,19.6,N/A,Rain,Light Freezing Rain,80,2013-02-21 15:52:00
10:52 AM,32.0,28.9,88,29.82,10.0,East,8.1,17.3,N/A,Rain,Light Freezing Rain,80,2013-02-21 16:52:00
11:15 AM,32.0,28.4,87,29.78,10.0,East,10.4,20.7,N/A,,Overcast,80,2013-02-21 17:15:00
11:52 AM,32.0,28.9,88,29.78,10.0,East,8.1,-,N/A,,Overcast,80,2013-02-21 17:52:00
12:12 PM,32.0,30.2,93,29.75,5.0,East,5.8,-,N/A,,Overcast,100,2013-02-21 18:12:00
12:31 PM,33.8,30.2,87,29.75,5.0,Variable,6.9,16.1,N/A,,Overcast,0,2013-02-21 18:31:00
12:52 PM,32.0,30.0,92,29.75,2.5,East,8.1,-,N/A,,Overcast,90,2013-02-21 18:52:00
1:08 PM,32.0,30.2,93,29.73,2.5,Variable,5.8,-,N/A,,Overcast,0,2013-02-21 19:08:00
1:16 PM,32.0,30.2,93,29.73,3.0,Variable,5.8,-,N/A,,Overcast,0,2013-02-21 19:16:00
1:52 PM,32.0,30.0,92,29.74,3.0,Variable,5.8,-,N/A,,Overcast,0,2013-02-21 19:52:00
2:21 PM,32.0,30.2,93,29.70,2.5,Variable,5.8,-,N/A,,Overcast,0,2013-02-21 20:21:00
2:52 PM,32.0,30.0,92,29.73,1.8,Variable,4.6,-,N/A,,Overcast,0,2013-02-21 20:52:00
3:37 PM,32.0,30.2,93,29.72,2.0,ESE,4.6,-,N/A,,Overcast,110,2013-02-21 21:37:00
3:52 PM,32.0,30.0,92,29.74,2.0,Variable,3.5,-,N/A,,Overcast,0,2013-02-21 21:52:00
4:02 PM,32.0,30.2,93,29.72,1.5,Calm,Calm,-,0.00,Snow,Light Snow,0,2013-02-21 22:02:00
4:20 PM,32.0,30.2,93,29.72,1.0,Calm,Calm,-,0.00,Snow,Light Snow,0,2013-02-21 22:20:00
4:31 PM,32.0,30.2,93,29.72,1.2,Calm,Calm,-,0.00,Snow,Light Snow,0,2013-02-21 22:31:00
4:37 PM,32.0,30.2,93,29.73,0.8,Calm,Calm,-,0.00,Snow,Light Snow,0,2013-02-21 22:37:00
4:45 PM,32.0,30.2,93,29.73,0.8,Variable,3.5,-,0.00,Snow,Light Snow,0,2013-02-21 22:45:00
4:52 PM,32.0,30.0,92,29.75,1.0,Calm,Calm,-,0.00,Snow,Light Snow,0,2013-02-21 22:52:00
5:03 PM,33.8,30.2,87,29.73,1.2,ESE,3.5,-,0.00,Snow,Light Snow,120,2013-02-21 23:03:00
5:12 PM,33.8,30.2,87,29.73,1.5,Calm,Calm,-,0.00,Snow,Light Snow,0,2013-02-21 23:12:00
5:23 PM,33.8,30.2,87,29.74,2.5,Calm,Calm,-,0.00,Snow,Light Snow,0,2013-02-21 23:23:00
5:29 PM,33.8,30.2,87,29.74,3.0,Calm,Calm,-,0.00,,Overcast,0,2013-02-21 23:29:00
5:52 PM,33.1,30.9,92,29.75,6.0,SE,3.5,-,0.00,,Overcast,140,2013-02-21 23:52:00
6:52 PM,33.1,30.9,92,29.78,6.0,Calm,Calm,-,N/A,,Overcast,0,2013-02-22 00:52:00
7:52 PM,33.1,30.9,92,29.79,4.0,SSW,8.1,-,N/A,,Overcast,210,2013-02-22 01:52:00
9:00 PM,33.8,30.2,87,29.77,7.0,SW,6.9,-,N/A,,Overcast,230,2013-02-22 03:00:00
9:52 PM,33.1,30.9,92,29.81,7.0,SW,6.9,-,N/A,,Overcast,230,2013-02-22 03:52:00
10:52 PM,28.9,26.1,89,29.86,10.0,WSW,13.8,-,N/A,,Overcast,240,2013-02-22 04:52:00
11:13 PM,26.6,21.2,80,29.87,10.0,West,15.0,21.9,N/A,,Mostly Cloudy,270,2013-02-22 05:13:00
11:20 PM,26.6,21.2,80,29.87,10.0,West,12.7,26.5,N/A,,Mostly Cloudy,270,2013-02-22 05:20:00
11:49 PM,24.8,19.4,80,29.88,10.0,West,10.4,19.6,N/A,,Scattered Clouds,260,2013-02-22 05:49:00
11:52 PM,24.1,19.9,84,29.90,10.0,West,11.5,19.6,N/A,,Partly Cloudy,260,2013-02-22 05:52:00